Weather History for KNCA - September, 2011

Change the Weather History Date:

Monday, September 12, 2011

  Actual Average Record
Temperature  
Mean Temperature 78 °F -  
Max Temperature 88 °F 80 °F 90 °F (2014)
Min Temperature 66 °F 64 °F 57 °F (1999)
Cooling Degree Days 12    
Growing Degree Days 28 (Base 50)    
Moisture  
Dew Point 68 °F    
Average Humidity 86    
Maximum Humidity 100    
Minimum Humidity 48    
Precipitation  
Precipitation 0.74 in - - ()
Sea Level Pressure  
Sea Level Pressure 30.04 in    
Wind  
Wind Speed 4 mph (SE)    
Max Wind Speed 16 mph    
Max Gust Speed 22 mph    
Visibility 6 miles    
Events Fog , Rain , Thunderstorm    
Averages and records for this station are not official NWS values.
T = Trace of Precipitation, MM = Missing Value Source: NWS Daily Summary

Daily Weather History Graph

Daily Weather History Graph

Search for Another Location

Airport or City:

Trip Planner

Search our weather history database for the weather conditions in past years. The results will help you decide how hot, cold, wet, or windy it might be!

Date:

Astronomy

Sep. 12, 2011 Rise Set
Actual Time 6:50 AM EDT 7:21 PM EDT
Civil Twilight 6:25 AM EDT 7:46 PM EDT
Nautical Twilight 5:55 AM EDT 8:16 PM EDT
Astronomical Twilight 5:24 AM EDT 8:46 PM EDT
Moon 7:13 PM EDT (9/12) 7:01 AM EDT (9/12)
Length of Visible Light 13h 21m
Length of Day
12h 30m
Full, 100% of the Moon is Illuminated
Sep 12
Full
Sep 20
Last Quarter
Sep 27
New
Oct 3
First Quarter
Oct 11
Full

Hourly Weather History & Observations

Time (EDT) Temp. Heat Index Dew Point Humidity Pressure Visibility Wind Dir Wind Speed Gust Speed Precip Events Conditions
12:56 AM 69.1 °F - 68.0 °F 96% 30.08 in 6.0 mi Calm Calm - N/A   Clear
1:56 AM 70.0 °F - 69.1 °F 97% 30.07 in 10.0 mi Calm Calm - N/A   Clear
2:56 AM 69.1 °F - 69.1 °F 100% 30.06 in 6.0 mi WSW 3.5 mph - N/A   Clear
3:56 AM 70.0 °F - 69.1 °F 97% 30.05 in 8.0 mi Calm Calm - N/A   Clear
4:56 AM 71.1 °F - 69.1 °F 93% 30.05 in 9.0 mi Calm Calm - N/A   Clear
5:56 AM 70.0 °F - 69.1 °F 97% 30.06 in 7.0 mi Calm Calm - N/A   Clear
6:56 AM 70.0 °F - 69.1 °F 97% 30.07 in 6.0 mi Calm Calm - N/A   Clear
7:56 AM 70.0 °F - 70.0 °F 100% 30.09 in 4.0 mi Calm Calm - N/A   Mostly Cloudy
8:56 AM 73.9 °F - 71.1 °F 91% 30.09 in 7.0 mi Calm Calm - N/A   Mostly Cloudy
9:56 AM 78.1 °F - 72.0 °F 81% 30.09 in 10.0 mi Calm Calm - N/A   Scattered Clouds
10:56 AM 81.0 °F 84.9 °F 71.1 °F 72% 30.09 in 10.0 mi WNW 5.8 mph - N/A   Scattered Clouds
11:56 AM 82.9 °F 85.4 °F 66.9 °F 58% 30.08 in 10.0 mi NW 6.9 mph - N/A   Scattered Clouds
12:56 PM 84.9 °F 86.6 °F 64.9 °F 51% 30.06 in 10.0 mi ENE 3.5 mph - N/A   Scattered Clouds
1:56 PM 87.1 °F 89.2 °F 66.0 °F 49% 30.03 in 10.0 mi Calm Calm - N/A   Clear
2:56 PM 87.1 °F 88.9 °F 64.9 °F 48% 29.99 in 10.0 mi ESE 4.6 mph - N/A   Scattered Clouds
3:56 PM 82.9 °F 86.5 °F 69.1 °F 63% 29.97 in 10.0 mi SSE 11.5 mph - N/A   Scattered Clouds
4:09 PM 80.6 °F 83.9 °F 69.8 °F 70% 29.96 in 10.0 mi SSE 13.8 mph - N/A Thunderstorm Thunderstorm
4:49 PM 75.2 °F - 71.6 °F 89% 29.98 in 2.5 mi South 10.4 mph - 0.19 in Rain , Thunderstorm Thunderstorms and Rain
4:56 PM 75.0 °F - 72.0 °F 90% 29.99 in 3.0 mi SW 8.1 mph - 0.21 in Rain , Thunderstorm Thunderstorms and Rain
5:12 PM 71.6 °F - 69.8 °F 94% 30.01 in 1.8 mi WSW 9.2 mph 17.3 mph 0.10 in Rain , Thunderstorm Thunderstorms and Rain
5:17 PM 71.6 °F - 69.8 °F 94% 30.00 in 1.0 mi WSW 10.4 mph - 0.19 in Rain , Thunderstorm Thunderstorms and Rain
5:19 PM 71.6 °F - 69.8 °F 94% 30.00 in 0.8 mi WSW 6.9 mph - 0.25 in Rain , Thunderstorm Thunderstorms and Rain
5:26 PM 69.8 °F - 69.8 °F 100% 30.01 in 0.5 mi Calm Calm - 0.33 in Fog , Rain , Thunderstorm Thunderstorms and Rain
5:33 PM 69.8 °F - 69.8 °F 100% 30.02 in 2.0 mi Calm Calm - 0.33 in Rain , Thunderstorm Thunderstorms and Rain
5:40 PM 69.8 °F - 68.0 °F 94% 30.03 in 5.0 mi NW 9.2 mph - 0.33 in Rain , Thunderstorm Rain
5:48 PM 71.6 °F - 69.8 °F 94% 30.03 in 5.0 mi North 10.4 mph - 0.33 in Rain Rain
5:56 PM 71.1 °F - 69.1 °F 93% 30.04 in 5.0 mi North 11.5 mph 18.4 mph 0.33 in Rain Rain
6:08 PM 71.6 °F - 68.0 °F 88% 30.03 in 1.0 mi ENE 16.1 mph 19.6 mph 0.00 in Rain , Thunderstorm Thunderstorms and Rain
6:15 PM 69.8 °F - 66.2 °F 88% 30.04 in 3.0 mi NE 11.5 mph - 0.02 in Rain , Thunderstorm Thunderstorms and Rain
6:24 PM 71.6 °F - 64.4 °F 78% 30.05 in 4.0 mi East 12.7 mph 21.9 mph 0.06 in Rain Rain
6:34 PM 69.8 °F - 64.4 °F 83% 30.04 in 2.5 mi East 10.4 mph - 0.12 in Rain , Thunderstorm Thunderstorms and Rain
6:41 PM 69.8 °F - 62.6 °F 78% 30.04 in 6.0 mi ESE 13.8 mph - 0.12 in Rain , Thunderstorm Light Thunderstorms and Rain
6:56 PM 69.1 °F - 66.9 °F 93% 30.05 in 4.0 mi ESE 9.2 mph - 0.17 in Rain Heavy Rain
7:01 PM 69.8 °F - 68.0 °F 94% 30.04 in 2.5 mi ESE 6.9 mph - 0.02 in Rain Rain
7:10 PM 69.8 °F - 68.0 °F 94% 30.02 in 5.0 mi ESE 12.7 mph - 0.03 in Rain Light Rain
7:56 PM 68.0 °F - 66.0 °F 93% 30.03 in 10.0 mi South 5.8 mph - 0.03 in   Clear
8:56 PM 70.0 °F - 66.9 °F 90% 30.06 in 10.0 mi North 6.9 mph - N/A   Overcast
9:56 PM 68.0 °F - 64.9 °F 90% 30.07 in 10.0 mi WNW 5.8 mph - N/A   Scattered Clouds
10:56 PM 68.0 °F - 64.9 °F 90% 30.04 in 10.0 mi Calm Calm - N/A   Partly Cloudy
11:56 PM 66.0 °F - 64.9 °F 96% 30.04 in 8.0 mi SSW 3.5 mph - N/A   Clear